SL-16 DEB, 43353

Orbit data source: Space-Track

SL-16 DEB, 43353 is space debris in LEO originally from a launch on Tue, 31 Oct 1995 UTC launched from the Tyuratam Missile And Space Complex (TTMTR). Debris objects in space refer to the collection of defunct objects orbiting the Earth. Examples of debris include non-operational satellites, rocket bodies, and fragments generated from explosions, collisions, or faulty payload assembly.

Loading next visibility...
Identifier
43353, 1995-058N
Orbit
LEO
Last TLE update
14 hours ago
Origin
Manufacturer
Unknown
Mission
Spacecraft
Bus & Motor
Unknown
Mass
Unknown
Launch date (UTC)
1995-10-31 (30 years ago)
Launch vehicle
Unknown
Launch site
Tyuratam Missile And Space Complex (TTMTR)
Object type
Payload
Rocket body
Debris
Shape & HBR
Unknown
Radar Cross Section
Small (<0.1 m²)

Expand to show TLE details & history

TLE from 14 hours ago
0 SL-16 DEB
1 43353U 95058N   25186.39613235  .00014896  00000-0  31535-2 0  9996
2 43353  70.9909 162.8419 0019890   0.5844 359.5321 14.59185758605128
Epoch: 2025-07-05T09:30Z
TLE epoch observation values (Epoch: 2025-07-05T09:30:25.835Z)
Latitude
-0.00003°
Longitude
96.59947°
Altitude
684.182 km
Speed
7.522 km/s
True Right ascension
10h 51m 22s
True Declination
0° 00' 00"
Sunlit
Object was in daylight at epoch
Visualization orbit readout
Latitude
70.89391°
Longitude
176.89163°
Altitude
706.82 km
Speed
7.51 km/s
Apparent Right ascension
21h 11m 17s
Apparent Declination
27° 37' 58"
Sunlit
Object is in daylight
Visualization observer readout
Local Sidereal Time
11:00:16
Azimuth
25.221° NE
Elevation
-17.848°
Doppler factor
1
Orbital elements
Apogee altitude
707.753 km
Perigee altitude
679.621 km
Semi-major axis
7,071.824 km
Eccentricity
0.00199
Inclination
70.9909°
RAAN
162.8419°
Arg. of periapsis
0.5844°
True anomaly
Unknown
Mean anomaly
359.5321°
Eccentric anomaly
Unknown
Mean motion
3.64961 °/min
Orbital period
98.64 mins
BSTAR
0.0031535
Loading maneuver chart data...
Loading SW <> Apogee altitude chart data...
Loading historical data...
Loading historical data...
Loading historical data...
Loading historical data...
Loading historical data...
Loading historical data...
Loading historical data...

SL-16 DEB Visibility forecast

Observer location: undefined°, undefined°

Span
Click to sort rows by Start time (UTC) header in descending order
Start Az.
Max El. time (UTC)
Max El. Az.
Max El.
End time (UTC)
End Az.
8 mins2025-07-06 00:26:58.797Z228.272° WSW2025-07-06 00:30:58.797Z287.313° WNW33.161°2025-07-06 00:34:58.797Z4.808° NNE
8 mins2025-07-06 09:05:58.797Z353.831° N2025-07-06 09:08:58.797Z46.448° ENE36.428°2025-07-06 09:13:58.797Z137.644° SSE
5 mins2025-07-06 10:47:58.797Z285.761° WNW2025-07-06 10:49:58.797Z256.633° W16.977°2025-07-06 10:52:58.797Z218.298° SW
|